This demonstration page uses our WeatherBlox Daily Observations layout. Learn more.

Left ArrowRight Arrow

31.84235, -102.49876

Hourly Observations for March 3, 2017

Temp ( °F °C ) Dew Point ( °F °C ) Humidity (%) Winds ( mph kmh ) Pressure ( in mb ) Visibility ( mi km ) Precip ( " mm )
12:53 am 00:53 Clear 46 7.8 16 -8.9 30 30 SE 10 17 30.38 1029 10 16 0.00 0.00
1:53 am 01:53 Clear 46 7.8 15 -9.4 29 29 SE 10 17 30.38 1029 10 16 0.00 0.00
2:53 am 02:53 Clear 44 6.7 15 -9.4 31 31 SE 9 15 30.38 1029 10 16 0.00 0.00
3:53 am 03:53 Clear 42 5.6 16 -8.9 35 35 SE 9 15 30.37 1028 10 16 0.00 0.00
4:53 am 04:53 Clear 41 5 16 -8.9 36 36 SE 10 17 30.37 1029 10 16 0.00 0.00
5:53 am 05:53 Clear 40 4.4 17 -8.3 40 40 SE 10 17 30.39 1029 10 16 0.00 0.00
6:53 am 06:53 Clear 40 4.4 18 -7.8 41 41 SE 9 15 30.41 1030 10 16 0.00 0.00
7:53 am 07:53 Sunny 43 6.1 18 -7.8 37 37 SSE 12 19 30.42 1030 10 16 0.00 0.00
8:53 am 08:53 Sunny 48 8.9 17 -8.3 29 29 SSE 15 24 30.42 1030 10 16 0.00 0.00
9:53 am 09:53 Sunny 51 10.6 17 -8.3 26 26 S 15 24 30.44 1031 10 16 0.00 0.00
10:53 am 10:53 Sunny 54 12.2 18 -7.8 24 24 S 17 28 30.42 1030 10 16 0.00 0.00
11:53 am 11:53 Sunny 57 13.9 18 -7.8 22 22 SSE 16 26 30.40 1030 10 16 0.00 0.00
12:53 pm 12:53 Sunny 59 15 17 -8.3 19 19 S 13 20 30.37 1028 10 16 0.00 0.00
1:53 pm 13:53 Sunny 61 16.1 16 -8.9 17 17 S 14 22 30.32 1027 10 16 0.00 0.00
2:53 pm 14:53 Sunny 63 17.2 15 -9.4 15 15 SSE 16 26 30.28 1025 10 16 0.00 0.00
3:53 pm 15:53 Sunny 61 16.1 14 -10 16 16 SSE 17 28 30.28 1025 10 16 0.00 0.00
4:53 pm 16:53 Sunny 62 16.7 15 -9.4 16 16 SSE 20 31 30.26 1025 10 16 0.00 0.00
5:53 pm 17:53 Sunny 61 16.1 16 -8.9 17 17 SE 16 26 30.26 1025 10 16 0.00 0.00
6:53 pm 18:53 Clear 59 15 17 -8.3 19 19 SSE 16 26 30.26 1025 10 16 0.00 0.00
7:53 pm 19:53 Clear 56 13.3 18 -7.8 22 22 SSE 12 19 30.27 1025 10 16 0.00 0.00
8:53 pm 20:53 Clear 54 12.2 18 -7.8 24 24 SSE 13 20 30.27 1025 10 16 0.00 0.00
9:53 pm 21:53 Clear 52 11.1 18 -7.8 26 26 SSE 12 19 30.27 1025 10 16 0.00 0.00
10:53 pm 22:53 Clear 51 10.6 20 -6.7 29 29 SSE 12 19 30.27 1025 10 16 0.00 0.00
11:53 pm 23:53 Clear 50 10 21 -6.1 32 32 S 8 13 30.26 1025 10 16 0.00 0.00

Powered by AerisWeather